Flag for Bosnia-Herzegovina Weather past 2 weeks in Tuzla, Bosnia-Herzegovina

Now
32 °F

Clear.


Feels Like: 32 °F
Forecast: 27 / 49 °F
Wind: 1 mph from North

Location: Tuzla

Current Time: Dec 22, 2014 at 9:13:04 PM

Latest Report: Dec 22, 2014 at 8:00 PM


Visibility: 4 mi

Pressure: 30.24 "Hg

Humidity: 100%

Dew point: 32 °F

Location of TuzlaLocation

Historic Weather in Tuzla — Graph

°F

Tuzla temperature yesterday

Maximum temperature yesterday: 48 °F (at 12:00 PM)
Minimum temperature yesterday: 30 °F (at 7:00 PM)
Average temperature yesterday: 39 °F

Past Weeks' High & Low Weather Summary

 TemperatureHumidityPressure
High61 °F (Dec 14, 1:30 PM)100% (Dec 7, 8:00 PM)30.48 "Hg (Dec 7, 8:00 PM)
Low23 °F (Dec 13, 5:30 AM)42% (Dec 13, 2:30 PM)29.83 "Hg (Dec 17, 5:00 AM)
Average40 °F92%30.13 "Hg
* Reported Dec 7 8:00 PM — Dec 22 8:00 PM, Tuzla, Weather by CustomWeather, © 2014

Note: Actual official high and low records may vary slightly from our data, if they occured in-between our weather recording intervals... More about our weather records

Advertising

Tuzla weather history for previous 24 hours

 ConditionsComfort  
Time TempWeatherWind HumidityBarometerVisibility
8:00 PM
Dec 22
32 °FClear.1 mph100%30.24 "Hg4 mi
7:00 PM36 °FClear.1 mph93%30.24 "Hg4 mi
6:00 PM39 °FClear.1 mph87%30.24 "Hg5 mi
5:00 PM43 °FClear.1 mph81%30.24 "Hg5 mi
4:00 PM48 °FClear.1 mph66%30.24 "Hg4 mi
3:00 PM52 °FClear.1 mph54%30.24 "Hg5 mi
2:00 PM52 °FClear.2 mph54%30.24 "Hg4 mi
1:00 PM50 °FPassing clouds.3 mph54%30.27 "HgN/A
12:00 PM45 °FFog.1 mph71%30.30 "Hg1 mi
11:00 AM37 °FFog.3 mph87%30.33 "Hg1 mi
10:30 AM36 °FFog.6 mph93%30.33 "Hg1 mi
10:00 AM32 °FIce fog.3 mph100%30.33 "Hg2 mi
9:30 AM32 °FIce fog.2 mph93%30.33 "Hg1 mi
9:00 AM28 °FIce fog.1 mph93%30.33 "Hg2 mi
8:30 AM27 °FIce fog.1 mph100%30.36 "Hg1 mi
8:00 AM23 °FIce fog.2 mph100%30.36 "Hg1 mi
7:00 AM23 °FIce fog.No wind100%30.36 "Hg2 mi
6:00 AM23 °FIce fog.2 mph100%30.36 "Hg3 mi
5:30 AM25 °FIce fog.2 mph100%30.36 "Hg3 mi
Weather by CustomWeather, © 2014

See weather overviewHow to use our weather pages